This is the latest recevied weather packets stored in our database for station/object K6GMW. If no packets are shown the sender has not sent any weather packets the latest 10 day(s).
| Time | Temp. | Humidity | Pressure | Rain* | Wind** | Luminosity | Snow |
|---|---|---|---|---|---|---|---|
| 1788355806 | 26.11° C | 87% | 1017.5 hPa | 0 mm | - | 56 W/m² | - |
| 1788355501 | 26.11° C | 88% | 1017.3 hPa | 0 mm | - | 56 W/m² | - |
| 1788355196 | 25.56° C | 89% | 1017.4 hPa | 0 mm | - | 53 W/m² | - |
| 1788354893 | 25.56° C | 90% | 1017.3 hPa | 0 mm | - | 53 W/m² | - |
| 1788354592 | 25.56° C | 90% | 1017.2 hPa | 0 mm | - | 56 W/m² | - |
| 1788354288 | 25° C | 90% | 1017.4 hPa | 0 mm | - | 49 W/m² | - |
| 1788353983 | 25° C | 91% | 1017.4 hPa | 0 mm | - | 47 W/m² | - |
| 1788353679 | 25° C | 91% | 1017.4 hPa | 0 mm | - | 48 W/m² | - |
| 1788353375 | 24.44° C | 92% | 1017.5 hPa | 0 mm | - | 47 W/m² | - |
| 1788353071 | 24.44° C | 92% | 1017.4 hPa | 0 mm | - | 39 W/m² | - |
| 1788352766 | 24.44° C | 92% | 1017.5 hPa | 0 mm | - | 38 W/m² | - |
| 1788352462 | 24.44° C | 92% | 1017.5 hPa | 0 mm | - | 34 W/m² | - |
| 1788352160 | 24.44° C | 92% | 1017.5 hPa | 0 mm | - | 30 W/m² | - |
| 1788351856 | 23.89° C | 92% | 1017.3 hPa | 0 mm | - | 27 W/m² | - |
| 1788351552 | 23.89° C | 92% | 1017.3 hPa | 0 mm | - | 23 W/m² | - |
| 1788351246 | 23.89° C | 92% | 1017.1 hPa | 0 mm | - | 19 W/m² | - |
| 1788350941 | 23.89° C | 92% | 1017.3 hPa | 0 mm | - | 15 W/m² | - |
| 1788350638 | 23.89° C | 92% | 1017.3 hPa | 0 mm | - | 11 W/m² | - |
| 1788350337 | 23.89° C | 92% | 1017.1 hPa | 0 mm | - | 7 W/m² | - |
| 1788350033 | 23.89° C | 92% | 1017.2 hPa | 0 mm | - | 4 W/m² | - |
| 1788349730 | 23.89° C | 91% | 1017 hPa | 0 mm | - | 2 W/m² | - |
| 1788349426 | 23.89° C | 91% | 1017 hPa | 0 mm | - | 1 W/m² | - |
| 1788349126 | 23.89° C | 91% | 1017.2 hPa | 0 mm | - | 0 W/m² | - |
| 1788348822 | 23.89° C | 91% | 1017.3 hPa | 0 mm | - | 0 W/m² | - |
| 1788348520 | 23.89° C | 91% | 1017 hPa | 0 mm | - | 0 W/m² | - |
* Rain latest hour (hover to see other rain measurements)
** Current wind speed in m/s (hover to see current wind gust speed)